This is the latest recevied weather packets stored in our database for station/object NA9VY-8. If no packets are shown the sender has not sent any weather packets the latest 10 day(s).
| Time | Temp. | Humidity | Pressure | Rain* | Wind** | Luminosity | Snow |
|---|---|---|---|---|---|---|---|
| 1777777719 | 2.78° C | 90% | 1025.1 hPa | 0 mm | - | 0 W/m² | - |
| 1777777416 | 2.78° C | 89% | 1025.2 hPa | 0 mm | - | 0 W/m² | - |
| 1777777113 | 2.78° C | 87% | 1025.2 hPa | 0 mm | - | 0 W/m² | - |
| 1777776810 | 2.78° C | 87% | 1025.1 hPa | 0 mm | - | 0 W/m² | - |
| 1777776507 | 3.33° C | 87% | 1025 hPa | 0 mm | - | 0 W/m² | - |
| 1777776204 | 3.33° C | 87% | 1025 hPa | 0 mm | - | 0 W/m² | - |
| 1777775900 | 3.33° C | 86% | 1024.7 hPa | 0 mm | - | 0 W/m² | - |
| 1777775598 | 3.33° C | 85% | 1024.8 hPa | 0 mm | - | 0 W/m² | - |
| 1777775294 | 3.89° C | 85% | 1024.9 hPa | 0 mm | - | 0 W/m² | - |
| 1777774994 | 3.89° C | 84% | 1024.6 hPa | 0 mm | - | 0 W/m² | - |
| 1777774691 | 3.89° C | 84% | 1024.5 hPa | 0 mm | - | 0 W/m² | - |
| 1777774388 | 3.89° C | 84% | 1024.7 hPa | 0 mm | - | 0 W/m² | - |
| 1777774085 | 3.89° C | 82% | 1024.6 hPa | 0 mm | - | 0 W/m² | - |
| 1777773783 | 4.44° C | 81% | 1024.6 hPa | 0 mm | - | 0 W/m² | - |
| 1777773478 | 4.44° C | 79% | 1024.3 hPa | 0 mm | - | 0 W/m² | - |
| 1777773176 | 4.44° C | 79% | 1024.2 hPa | 0 mm | - | 0 W/m² | - |
| 1777772871 | 5° C | 79% | 1024 hPa | 0 mm | - | 0 W/m² | - |
| 1777772570 | 5° C | 77% | 1024 hPa | 0 mm | - | 0 W/m² | - |
| 1777772266 | 5° C | 78% | 1023.9 hPa | 0 mm | - | 0 W/m² | - |
| 1777771964 | 5.56° C | 77% | 1023.8 hPa | 0 mm | - | 0 W/m² | - |
| 1777771661 | 5.56° C | 77% | 1023.8 hPa | 0 mm | - | 0 W/m² | - |
| 1777771358 | 6.11° C | 77% | 1023.5 hPa | 0 mm | - | 0 W/m² | - |
| 1777771055 | 6.11° C | 76% | 1023.7 hPa | 0 mm | - | 0 W/m² | - |
| 1777770753 | 6.67° C | 71% | 1023.5 hPa | 0 mm | - | 0 W/m² | - |
| 1777770448 | 6.67° C | 67% | 1023.3 hPa | 0 mm | - | 0 W/m² | - |
* Rain latest hour (hover to see other rain measurements)
** Current wind speed in m/s (hover to see current wind gust speed)